TimeEDT,TemperatureF,Dew PointF,Humidity,Sea Level PressureIn,VisibilityMPH,Wind Direction,Wind SpeedMPH,Gust SpeedMPH,PrecipitationIn,Events,Conditions,WindDirDegrees,DateUTC
12:54 AM,41.0,33.1,73,30.45,10.0,North,3.5,-,N/A,,Clear,10,2012-10-13 04:54:00
1:54 AM,39.9,33.1,77,30.46,10.0,North,3.5,-,N/A,,Clear,10,2012-10-13 05:54:00
2:54 AM,43.0,30.0,60,30.46,10.0,NNE,4.6,-,N/A,,Clear,30,2012-10-13 06:54:00
3:54 AM,43.0,28.0,56,30.47,10.0,NE,4.6,-,N/A,,Clear,50,2012-10-13 07:54:00
4:54 AM,42.1,28.9,60,30.48,10.0,NNE,5.8,-,N/A,,Clear,30,2012-10-13 08:54:00
5:54 AM,36.0,30.0,79,30.51,10.0,Calm,Calm,-,N/A,,Clear,0,2012-10-13 09:54:00
6:54 AM,35.1,30.9,85,30.51,10.0,Calm,Calm,-,N/A,,Clear,0,2012-10-13 10:54:00
7:54 AM,36.0,30.9,82,30.51,10.0,Calm,Calm,-,N/A,,Partly Cloudy,0,2012-10-13 11:54:00
8:54 AM,45.0,30.0,56,30.52,10.0,NNE,3.5,-,N/A,,Scattered Clouds,30,2012-10-13 12:54:00
9:54 AM,48.0,30.0,50,30.54,10.0,East,5.8,-,N/A,,Partly Cloudy,100,2012-10-13 13:54:00
10:54 AM,50.0,30.9,48,30.52,10.0,Calm,Calm,-,N/A,,Scattered Clouds,0,2012-10-13 14:54:00
11:54 AM,52.0,27.0,38,30.52,10.0,Calm,Calm,-,N/A,,Scattered Clouds,0,2012-10-13 15:54:00
12:54 PM,54.0,27.0,35,30.47,10.0,NE,5.8,-,N/A,,Scattered Clouds,40,2012-10-13 16:54:00
1:54 PM,55.9,28.0,34,30.43,10.0,Variable,5.8,-,N/A,,Scattered Clouds,0,2012-10-13 17:54:00
2:54 PM,55.9,28.9,36,30.40,10.0,SSE,8.1,-,N/A,,Scattered Clouds,160,2012-10-13 18:54:00
3:54 PM,57.9,30.0,35,30.39,10.0,SW,4.6,-,N/A,,Scattered Clouds,230,2012-10-13 19:54:00
4:54 PM,57.9,28.9,33,30.38,10.0,SE,8.1,-,N/A,,Scattered Clouds,130,2012-10-13 20:54:00
5:54 PM,55.0,28.9,37,30.38,10.0,SE,5.8,-,N/A,,Scattered Clouds,140,2012-10-13 21:54:00
6:54 PM,52.0,32.0,47,30.37,10.0,Calm,Calm,-,N/A,,Scattered Clouds,0,2012-10-13 22:54:00
7:54 PM,48.9,34.0,56,30.35,10.0,Calm,Calm,-,N/A,,Mostly Cloudy,0,2012-10-13 23:54:00
8:54 PM,46.9,37.0,68,30.36,10.0,Calm,Calm,-,N/A,,Mostly Cloudy,0,2012-10-14 00:54:00
9:54 PM,46.9,36.0,66,30.35,10.0,Calm,Calm,-,N/A,,Partly Cloudy,0,2012-10-14 01:54:00
10:54 PM,46.9,36.0,66,30.33,10.0,Calm,Calm,-,N/A,,Partly Cloudy,0,2012-10-14 02:54:00
11:54 PM,48.2,39.2,71,30.30,10.0,South,4.6,-,N/A,,Partly Cloudy,190,2012-10-14 03:54:00